Powrót do katalogu

FENGYUN 1C DEB

AktywnyPO
NORAD 33621·DEBRIS·🇨🇳 China

Wystrzelony May 10, 1999 z Taiyuan Satellite Launch Center

Loading…

Następne Przeloty (najbliższe 24 godziny)

TLE

ŚwieżeSource: Space-Track

Epoka: Sep 13, 2026, 06:40 UTC

1 33621U 99025DDE 26256.27780557  .00001356  00000-0  43895-3 0  9999
2 33621  98.1228  90.3003 0282190 208.9141 149.6152 14.20298127681402

Śledź FENGYUN 1C DEB w czasie rzeczywistym z AllMySat

Download on the App Store